Location: Skalnate Pleso
(49.1889°N, 20.2450°E)
Time: 22:58:44
(UTC+01:00)

COSMOS 2455 - Pass Details

Date: 19 November 2019
Orbit: 902 x 908 km, 67.1° (Epoch: 13 December)

Event Time Altitude Azimuth Distance (km) Brightness Sun altitude
Exits shadow 04:06:43 72° 311° (NW) 955 2.7 -27.1°
Maximum altitude 04:07:21 85° 238° (WSW) 917 2.7 -27.0°
Drops below altitude 10° 04:13:22 10° 150° (SSE) 2,583 5.6 -26.0°
Sets 04:15:52 0° 149° (SSE) 3,519 6.3 -25.6°
